Location: Newark
(51.2625°N, 13.3939°E)
Time: 21:48:09
(UTC+00:00)

Transit 2A Rocket - Pass Details

Date: 26 November 2019
Orbit: 594 x 909 km, 66.7° (Epoch: 11 December)

Event Time Altitude Azimuth Distance (km) Brightness Sun altitude
Exits shadow 03:08:18 20° 129° (SE) 1,447 6.8 -32.5°
Drops below altitude 10° 03:09:47 10° 133° (SE) 2,025 7.6 -32.2°
Sets 03:12:09 0° 136° (SE) 2,972 8.5 -31.9°
